DW8887 Weather Reports


Display with metric or nautical units.
time (UTC)temp
F
wind
direction
speed
MPH
gust
MPH
rain 1hr
in
rain 24hr
in
rain mn
in
humidity
%
barometer
mb
20210613013110 79 105 2.0 10.0 0.00 0.00 0.00 33 1009.0
20210613011545 80 188 3.0 12.0 0.00 0.00 0.00 35 1009.1
20210613010058 80 122 4.0 14.0 0.00 0.00 0.00 33 1009.3
20210613003203 81 155 2.0 10.0 0.00 0.00 0.00 31 1009.8
20210613001623 81 153 3.0 10.0 0.00 0.00 0.00 33 1009.9
20210613000140 81 169 5.0 14.0 0.00 0.00 0.00 31 1010.2
20210612234543 80 167 6.0 15.0 0.00 0.00 0.00 31 1010.4
20210612233024 80 172 3.0 13.0 0.00 0.00 0.00 32 1010.7
20210612231550 81 166 4.0 10.0 0.00 0.00 0.00 32 1010.9
20210612230014 80 153 3.0 12.0 0.00 0.00 0.00 33 1011.1
20210612224509 80 167 3.0 10.0 0.00 0.00 0.00 31 1011.4
20210612223008 80 141 3.0 7.0 0.00 0.00 0.00 34 1011.7
20210612221755 79 136 2.0 12.0 0.00 0.00 0.00 33 1012.0
20210612220151 77 135 2.0 7.0 0.00 0.00 0.00 37 1012.3
20210612214503 77 132 0.0 10.0 0.00 0.00 0.00 34 1012.3
20210612213125 77 139 2.0 7.0 0.00 0.00 0.00 35 1012.5
20210612211621 78 169 2.0 7.0 0.00 0.00 0.00 31 1012.7
20210612210124 78 118 2.0 7.0 0.00 0.00 0.00 35 1012.9
20210612204659 78 147 0.0 6.0 0.00 0.00 0.00 38 1013.2
20210612203137 76 150 1.0 6.0 0.00 0.00 0.00 39 1013.5
20210612201546 74 165 0.0 4.0 0.00 0.00 0.00 43 1013.8
20210612200113 74 351 2.0 6.0 0.00 0.00 0.00 41 1013.9
20210612194619 73 261 0.0 5.0 0.00 0.00 0.00 42 1014.2
20210612193115 74 281 2.0 4.0 0.00 0.00 0.00 41 1014.3
20210612191645 73 156 0.0 4.0 0.00 0.00 0.00 44 1014.4
20210612190114 71 130 0.0 6.0 0.00 0.00 0.00 46 1014.6
20210612184621 70 223 1.0 3.0 0.00 0.00 0.00 52 1015.0
20210612183058 69 345 1.0 4.0 0.00 0.00 0.00 53 1015.1
20210612181542 69 359 0.0 1.0 0.00 0.00 0.00 55 1015.1
20210612180138 68 352 0.0 3.0 0.00 0.00 0.00 56 1015.3
20210612174557 68 149 0.0 2.0 0.00 0.00 0.00 58 1015.4
20210612173026 67 164 0.0 4.0 0.00 0.00 0.00 60 1015.5
20210612171641 67 169 0.0 0.0 0.00 0.00 0.00 62 1015.5
20210612170050 66 169 1.0 5.0 0.00 0.00 0.00 62 1015.8
20210612164529 65 53 0.0 0.0 0.00 0.00 0.00 66 1015.8
20210612163034 63 51 0.0 0.0 0.00 0.00 0.00 66 1015.7
20210612161539 63 45 0.0 0.0 0.00 0.00 0.00 71 1015.9
20210612160014 62 155 0.0 0.0 0.00 0.00 0.00 73 1015.9
20210612154516 61 158 0.0 0.0 0.00 0.00 0.00 75 1016.1
20210612153143 60 158 0.0 0.0 0.00 0.00 0.00 77 1016.1
20210612151714 59 212 0.0 0.0 0.00 0.00 0.00 79 1016.1
20210612150157 58 213 0.0 2.0 0.00 0.00 0.00 82 1016.1
20210612144709 57 272 0.0 1.0 0.00 0.00 0.00 87 1016.1
20210612143048 55 319 0.0 0.0 0.00 0.00 0.00 91 1016.0
20210612141557 54 319 0.0 2.0 0.00 0.00 0.00 92 1015.8
20210612140120 53 318 0.0 1.0 0.00 0.00 0.00 93 1015.9
20210612134703 52 298 1.0 2.0 0.00 0.00 0.00 93 1015.8
20210612133053 52 203 0.0 2.0 0.00 0.00 0.00 93 1015.6
20210612131555 52 164 0.0 0.0 0.00 0.00 0.00 92 1015.4
20210612130108 51 165 0.0 0.0 0.00 0.00 0.00 92 1015.3
20210612124547 51 165 0.0 0.0 0.00 0.00 0.00 92 1015.1
20210612123109 51 164 0.0 0.0 0.00 0.00 0.00 91 1015.0
20210612121620 51 164 0.0 0.0 0.00 0.00 0.00 91 1015.1
20210612120143 52 164 0.0 0.0 0.00 0.00 0.00 91 1014.8
20210612114614 52 164 0.0 0.0 0.00 0.00 0.00 91 1014.7
20210612113151 52 167 0.0 0.0 0.00 0.00 0.00 91 1014.7
20210612111603 52 169 0.0 0.0 0.00 0.00 0.00 90 1014.3
20210612110058 52 169 0.0 0.0 0.00 0.00 0.00 90 1014.3
20210612104552 53 169 0.0 0.0 0.00 0.00 0.00 89 1014.2
20210612103054 53 168 0.0 0.0 0.00 0.00 0.00 88 1013.9
20210612101621 53 168 0.0 0.0 0.00 0.00 0.00 88 1013.9
20210612100032 53 168 0.0 0.0 0.00 0.00 0.00 88 1013.9
20210612094538 53 168 0.0 0.0 0.00 0.00 0.00 86 1013.8
20210612093112 53 168 0.0 0.0 0.00 0.00 0.00 86 1013.8
20210612091558 54 168 0.0 0.0 0.00 0.00 0.00 86 1013.9
20210612090056 54 168 0.0 0.0 0.00 0.00 0.00 86 1013.8
20210612084534 54 168 0.0 0.0 0.00 0.00 0.00 85 1013.6
20210612083025 54 168 0.0 0.0 0.00 0.00 0.00 85 1013.5
20210612081518 55 168 0.0 0.0 0.00 0.00 0.00 83 1013.4
20210612080027 54 168 0.0 0.0 0.00 0.00 0.00 81 1013.2
20210612074519 55 168 0.0 0.0 0.00 0.00 0.00 82 1013.2
20210612073005 54 168 0.0 0.0 0.00 0.00 0.00 80 1013.0
20210612071504 54 168 0.0 0.0 0.00 0.00 0.00 81 1013.0
20210612070204 54 168 0.0 0.0 0.00 0.00 0.00 82 1012.9
20210612064516 55 168 0.0 0.0 0.00 0.00 0.00 82 1013.0
20210612063022 55 130 0.0 0.0 0.00 0.00 0.00 82 1012.9
20210612061528 55 114 1.0 9.0 0.00 0.00 0.00 80 1013.0
20210612060022 57 143 2.0 9.0 0.00 0.00 0.00 76 1013.3
20210612054556 58 135 0.0 6.0 0.00 0.00 0.00 70 1013.4
20210612053057 59 122 0.0 7.0 0.00 0.00 0.00 66 1013.4
20210612051528 59 119 0.0 6.0 0.00 0.00 0.00 64 1013.4
20210612050028 60 139 2.0 8.0 0.00 0.00 0.00 60 1013.5
20210612044510 60 120 0.0 4.0 0.00 0.00 0.00 58 1013.2
20210612043024 61 131 1.0 8.0 0.00 0.00 0.00 57 1013.0
20210612041511 61 150 0.0 3.0 0.00 0.00 0.00 55 1012.8
20210612040042 61 155 0.0 4.0 0.00 0.00 0.00 54 1012.7
20210612034639 62 33 0.0 3.0 0.00 0.00 0.00 56 1012.6
20210612033245 63 13 0.0 0.0 0.00 0.00 0.00 53 1012.5
20210612031610 63 13 0.0 0.0 0.00 0.00 0.00 51 1012.3
20210612030122 63 359 0.0 0.0 0.00 0.00 0.00 50 1012.1
20210612024527 63 359 0.0 1.0 0.00 0.00 0.00 52 1011.9
20210612023105 64 359 0.0 1.0 0.00 0.00 0.00 52 1011.9
20210612021528 64 359 0.0 2.0 0.00 0.00 0.00 49 1011.8
20210612020040 64 308 1.0 5.0 0.00 0.00 0.00 51 1011.5
20210612014508 65 281 4.0 8.0 0.00 0.00 0.00 49 1011.6